Regional Weather Roundup
Issued by NWS

Home | Current Version | Previous Version | Graphics & Text | Print | Product List | Glossary On
Versions: 1 2 3 4 5 6 7 8 9 10 11 12 13 14 15 16 17 18 19 20 21 22 23 24 25 26 27 28 29 30 31 32 33 34 35 36 37 38 39 40 41 42 43 44 45 46 47 48 49 50
000
ASUS43 KTOP 210359
RWRKS

WEATHER ROUNDUP FOR KANSAS
NATIONAL WEATHER SERVICE GOODLAND KS
1100 PM CDT SAT SEP 20 2014

NOTE:  "FAIR" INDICATES FEW OR NO CLOUDS BELOW 12,000 FEET WITH NO
SIGNIFICANT WEATHER AND/OR OBSTRUCTIONS TO VISIBILITY.

KSZ001>006-013>018-027>032-041>047-210500-
NORTHWEST KANSAS

CITY           SKY/WX    TMP DP  RH WIND       PRES   REMARKS
GOODLAND       CLEAR     61  52  72 CALM      30.22R
HAYS           CLEAR     70  57  64 NE9       30.10R
HILL CITY      CLEAR     63  53  70 CALM      30.12R
RUSSELL        CLEAR     71  60  68 NE7       30.07R
$$

KSZ061>065-074>080-084>089-210500-
SOUTHWEST KANSAS

CITY           SKY/WX    TMP DP  RH WIND       PRES   REMARKS
DODGE CITY     PTCLDY    74  64  71 N12       30.10R
ELKHART          N/A     72  59  64 NE7         N/A
GARDEN CITY    CLEAR     71  61  70 NE14      30.13R
GREAT BEND     CLOUDY    75  64  69 E8        30.08R
LIBERAL        CLEAR     79  61  53 NE13      30.12R
$$

KSZ066>073-081>083-090>101-210500-
SOUTHEAST KANSAS

CITY           SKY/WX    TMP DP  RH WIND       PRES   REMARKS
CHANUTE        CLOUDY    74  70  87 S5        30.00S
HUTCHINSON     MOCLDY    71  66  84 N12       30.03F
NEWTON         MOCLDY    70  64  83 NE7       30.06R
PARSONS        CLOUDY    76  70  82 S3        30.01S
WICHITA INTL   MOCLDY    73  68  84 CALM      29.99R
WICHITA JABRA  CLOUDY    70  67  90 NE7       30.02R
WINFIELD       MOCLDY    78  66  66 W8        29.99F
$$

KSZ007>012-019>026-033>040-048>060-102>105-210500-
NORTHEAST KANSAS

CITY           SKY/WX    TMP DP  RH WIND       PRES   REMARKS
CONCORDIA      CLEAR     67  61  81 S3        30.06R
EMPORIA        MOCLDY    70  67  90 SW5       30.01R
LAWRENCE       CLEAR     66  64  93 CALM      30.00R FOG
MANHATTAN      CLEAR     67  65  93 SW5       30.02R
OLATHE IND     PTCLDY    71  69  93 CALM      30.01R
OLATHE EXE     PTCLDY    72  69  90 CALM      30.00R
SALINA         PTCLDY    72  68  87 W3        30.05R
TOPEKA BILLARD CLEAR     68  67  96 CALM      30.01R FOG
TOPEKA FORBES  CLEAR     68  66  93 NW3       30.01R
$$



USA.gov is the U.S. government's official web portal to all federal, state and local government web resources and services.